UAL865 KSFO-YSSY

Flight info

Callsign UAL865
Flight time N/A
Altitude 32000
Route GNNRR3 CINNY DCT ALANN DCT ADUMM DCT 30N132W 25N136W 20N141W DCT CAMOS/N0498F340 B581 WOSLU DCT 00N161W 05S165W/N0491F360 DCT TUT B450 SOVRA/N0484F380 B450 LHI DCT GOOMA H258 RIKNI N774 MARLN
Aircraft B772/H-SDE2E3FGHIJ5LORVWXY/LB1D1

Departure

Time N/A
Airport San Francisco International Airport (KSFO)

Arrival

Time 2026-04-24 12:59
Airport Sydney Kingsford Smith International Airport (YSSY)
Time Latitude Longitude Altitude Speed Heading
2026-04-24 11:49 -33.17427 155.02295 32286 ft 493 kts 235°
2026-04-24 11:49 -33.19193 154.98845 32550 ft 482 kts 235°
2026-04-24 11:50 -33.20934 154.95442 32797 ft 479 kts 235°
2026-04-24 11:50 -33.22531 154.92170 32765 ft 483 kts 237°
2026-04-24 11:50 -33.24186 154.88641 32660 ft 487 kts 237°
2026-04-24 11:50 -33.25630 154.85530 32582 ft 490 kts 237°
2026-04-24 11:51 -33.28879 154.78370 32482 ft 495 kts 240°
2026-04-24 11:51 -33.31681 154.70792 32487 ft 500 kts 244°
2026-04-24 11:52 -33.34355 154.63099 32479 ft 501 kts 244°
2026-04-24 11:52 -33.37099 154.55443 32479 ft 501 kts 243°
2026-04-24 11:53 -33.39875 154.47875 32478 ft 499 kts 243°
2026-04-24 11:53 -33.42693 154.40228 32480 ft 498 kts 243°
2026-04-24 11:54 -33.45460 154.32694 32479 ft 497 kts 243°
2026-04-24 11:54 -33.48231 154.25119 32473 ft 496 kts 243°
2026-04-24 11:55 -33.50994 154.17542 32486 ft 496 kts 243°
2026-04-24 11:55 -33.53746 154.09979 32480 ft 495 kts 243°
2026-04-24 11:56 -33.56030 154.03691 32485 ft 495 kts 243°
2026-04-24 11:56 -33.58770 153.96131 32482 ft 494 kts 243°
2026-04-24 11:57 -33.61505 153.88566 32484 ft 494 kts 243°
2026-04-24 11:57 -33.64235 153.81000 32483 ft 494 kts 244°
2026-04-24 11:58 -33.66958 153.73431 32480 ft 494 kts 244°
2026-04-24 11:58 -33.69676 153.65862 32483 ft 493 kts 244°
2026-04-24 11:59 -33.72392 153.58280 32481 ft 493 kts 244°
2026-04-24 11:59 -33.75097 153.50710 32481 ft 493 kts 244°
2026-04-24 12:00 -33.77797 153.43137 32481 ft 493 kts 244°
2026-04-24 12:00 -33.80493 153.35558 32481 ft 493 kts 244°
2026-04-24 12:01 -33.83183 153.27977 32481 ft 492 kts 244°
2026-04-24 12:01 -33.85867 153.20397 32482 ft 492 kts 244°
2026-04-24 12:02 -33.88531 153.12854 32481 ft 492 kts 244°
2026-04-24 12:02 -33.91207 153.05259 32480 ft 492 kts 244°
2026-04-24 12:03 -33.93882 152.97650 32481 ft 492 kts 244°
2026-04-24 12:03 -33.96548 152.90048 32477 ft 493 kts 244°
2026-04-24 12:04 -33.99209 152.82440 32484 ft 493 kts 244°
2026-04-24 12:04 -34.00515 152.78699 32378 ft 484 kts 244°
2026-04-24 12:04 -34.01817 152.74962 31630 ft 483 kts 244°
2026-04-24 12:05 -34.03124 152.71213 30757 ft 485 kts 244°
2026-04-24 12:05 -34.04426 152.67474 29822 ft 481 kts 244°
2026-04-24 12:05 -34.05711 152.63775 28862 ft 474 kts 244°
2026-04-24 12:05 -34.06881 152.60084 27927 ft 470 kts 251°
2026-04-24 12:06 -34.07563 152.56243 27024 ft 467 kts 260°
2026-04-24 12:06 -34.07792 152.52359 26162 ft 463 kts 268°
2026-04-24 12:06 -34.07576 152.48532 25310 ft 460 kts 275°
2026-04-24 12:06 -34.07193 152.44775 24520 ft 455 kts 275°
2026-04-24 12:07 -34.06802 152.41048 23640 ft 441 kts 275°
2026-04-24 12:07 -34.06433 152.37434 22683 ft 426 kts 275°
2026-04-24 12:07 -34.06088 152.33940 21771 ft 413 kts 275°
2026-04-24 12:07 -34.05763 152.30549 20889 ft 402 kts 275°
2026-04-24 12:08 -34.05450 152.27230 20029 ft 394 kts 275°
2026-04-24 12:08 -34.05143 152.23967 19209 ft 388 kts 276°
2026-04-24 12:08 -34.04839 152.20750 18335 ft 383 kts 276°
2026-04-24 12:08 -34.04539 152.17576 17387 ft 379 kts 276°
2026-04-24 12:09 -34.04239 152.14427 16457 ft 376 kts 276°
2026-04-24 12:09 -34.03940 152.11294 15555 ft 373 kts 276°
2026-04-24 12:09 -34.03643 152.08196 14728 ft 368 kts 276°
2026-04-24 12:09 -34.03353 152.05206 14161 ft 358 kts 276°
2026-04-24 12:10 -34.03053 152.02232 13726 ft 360 kts 276°
2026-04-24 12:10 -34.02745 151.99211 13480 ft 364 kts 276°
2026-04-24 12:10 -34.02434 151.96173 13178 ft 364 kts 276°
2026-04-24 12:11 -34.01819 151.90155 12413 ft 359 kts 277°
2026-04-24 12:11 -34.01514 151.87176 12039 ft 357 kts 277°
2026-04-24 12:11 -34.01213 151.84239 11664 ft 355 kts 277°
2026-04-24 12:11 -34.00911 151.81294 11297 ft 354 kts 277°
2026-04-24 12:12 -34.00606 151.78342 10919 ft 353 kts 277°
2026-04-24 12:12 -34.00308 151.75444 10545 ft 351 kts 277°
2026-04-24 12:12 -34.00008 151.72530 10144 ft 349 kts 277°
2026-04-24 12:12 -33.99908 151.71549 10015 ft 349 kts 277°
2026-04-24 12:13 -33.99751 151.70028 9795 ft 347 kts 277°
2026-04-24 12:13 -33.99454 151.67143 9380 ft 344 kts 277°
2026-04-24 12:13 -33.99160 151.64294 9045 ft 343 kts 277°
2026-04-24 12:13 -33.98863 151.61421 9016 ft 344 kts 277°
2026-04-24 12:14 -33.98568 151.58586 8998 ft 339 kts 277°
2026-04-24 12:14 -33.98477 151.55775 8997 ft 338 kts 261°
2026-04-24 12:14 -33.99279 151.53119 9002 ft 341 kts 236°
2026-04-24 12:14 -34.00885 151.51058 9018 ft 338 kts 213°
2026-04-24 12:15 -34.02997 151.49887 9013 ft 334 kts 191°
2026-04-24 12:15 -34.05293 151.49745 9010 ft 331 kts 169°
2026-04-24 12:15 -34.07446 151.50635 8997 ft 327 kts 147°
2026-04-24 12:15 -34.09150 151.52411 9007 ft 324 kts 126°
2026-04-24 12:16 -34.10261 151.54757 9005 ft 322 kts 108°
2026-04-24 12:16 -34.10692 151.57390 8998 ft 321 kts 95°
2026-04-24 12:16 -34.10919 151.60069 9001 ft 322 kts 95°
2026-04-24 12:16 -34.11163 151.62760 9002 ft 323 kts 96°
2026-04-24 12:17 -34.11420 151.65419 9004 ft 324 kts 96°
2026-04-24 12:17 -34.11662 151.68115 8983 ft 319 kts 91°
2026-04-24 12:17 -34.11302 151.70725 9004 ft 318 kts 67°
2026-04-24 12:17 -34.10109 151.72972 9004 ft 321 kts 47°
2026-04-24 12:18 -34.08319 151.74598 9007 ft 326 kts 27°
2026-04-24 12:18 -34.06147 151.75385 8995 ft 330 kts
2026-04-24 12:18 -34.03863 151.75152 9006 ft 334 kts 344°
2026-04-24 12:18 -34.01802 151.73865 9005 ft 337 kts 321°
2026-04-24 12:19 -34.00301 151.71702 8998 ft 340 kts 299°
2026-04-24 12:19 -33.99532 151.69023 8991 ft 337 kts 279°
2026-04-24 12:19 -33.99270 151.66215 9009 ft 337 kts 276°
2026-04-24 12:19 -33.99025 151.63395 9000 ft 339 kts 276°
2026-04-24 12:20 -33.98758 151.60570 9007 ft 341 kts 277°
2026-04-24 12:20 -33.98478 151.57733 9001 ft 340 kts 276°
2026-04-24 12:20 -33.98598 151.54923 8981 ft 337 kts 253°
2026-04-24 12:20 -33.99650 151.52463 9004 ft 337 kts 229°
2026-04-24 12:21 -34.01457 151.50625 9009 ft 337 kts 207°
2026-04-24 12:21 -34.03634 151.49730 9001 ft 336 kts 186°
2026-04-24 12:21 -34.05947 151.49858 8997 ft 333 kts 163°
2026-04-24 12:21 -34.08030 151.51018 9005 ft 330 kts 141°
2026-04-24 12:22 -34.09580 151.53017 9000 ft 327 kts 121°
2026-04-24 12:22 -34.10493 151.55505 8998 ft 323 kts 102°
2026-04-24 12:22 -34.10802 151.58187 9003 ft 322 kts 95°
2026-04-24 12:22 -34.11033 151.60869 8996 ft 322 kts 95°
2026-04-24 12:23 -34.11281 151.63556 8990 ft 322 kts 96°
2026-04-24 12:23 -34.11543 151.66241 8993 ft 322 kts 96°
2026-04-24 12:23 -34.11695 151.68910 8988 ft 316 kts 84°
2026-04-24 12:23 -34.11059 151.71459 9002 ft 323 kts 61°
2026-04-24 12:24 -34.09662 151.73575 9003 ft 325 kts 41°
2026-04-24 12:24 -34.07735 151.74983 9002 ft 325 kts 21°
2026-04-24 12:24 -34.05519 151.75465 9000 ft 326 kts
2026-04-24 12:24 -34.03303 151.74922 8999 ft 328 kts 338°
2026-04-24 12:25 -34.01394 151.73395 9010 ft 332 kts 315°
2026-04-24 12:25 -34.00078 151.71145 9008 ft 335 kts 296°
2026-04-24 12:25 -33.99459 151.68439 8992 ft 335 kts 277°
2026-04-24 12:25 -33.99222 151.65639 9010 ft 338 kts 276°
2026-04-24 12:26 -33.98972 151.62807 9002 ft 342 kts 277°
2026-04-24 12:26 -33.98699 151.59956 9004 ft 344 kts 277°
2026-04-24 12:26 -33.98433 151.57099 8999 ft 339 kts 273°
2026-04-24 12:26 -33.98761 151.54319 8997 ft 338 kts 248°
2026-04-24 12:27 -34.00022 151.51951 9010 ft 337 kts 224°
2026-04-24 12:27 -34.01930 151.50337 8995 ft 336 kts 202°
2026-04-24 12:27 -34.04186 151.49674 9003 ft 334 kts 180°
2026-04-24 12:27 -34.06468 151.50060 8995 ft 331 kts 158°
2026-04-24 12:28 -34.08440 151.51438 9002 ft 328 kts 136°
2026-04-24 12:28 -34.09841 151.53575 9003 ft 326 kts 117°
2026-04-24 12:28 -34.10586 151.56129 9000 ft 323 kts 98°
2026-04-24 12:28 -34.10844 151.58823 9005 ft 323 kts 95°
2026-04-24 12:29 -34.11078 151.61516 8992 ft 323 kts 96°
2026-04-24 12:29 -34.11331 151.64210 9000 ft 323 kts 96°
2026-04-24 12:29 -34.11595 151.66901 8993 ft 323 kts 96°
2026-04-24 12:29 -34.11606 151.69563 8992 ft 317 kts 78°
2026-04-24 12:30 -34.10767 151.72006 8995 ft 320 kts 56°
2026-04-24 12:30 -34.09233 151.73951 9008 ft 324 kts 37°
2026-04-24 12:30 -34.07210 151.75165 8996 ft 328 kts 17°
2026-04-24 12:30 -34.04931 151.75425 8997 ft 333 kts 355°
2026-04-24 12:31 -34.02717 151.74616 8998 ft 336 kts 332°
2026-04-24 12:31 -34.00939 151.72848 9001 ft 339 kts 309°
2026-04-24 12:31 -33.99796 151.70358 9007 ft 339 kts 288°
2026-04-24 12:31 -33.99380 151.67571 9011 ft 337 kts 276°
2026-04-24 12:32 -33.99143 151.64751 9001 ft 339 kts 276°
2026-04-24 12:32 -33.98887 151.61927 8993 ft 339 kts 277°
2026-04-24 12:32 -33.98613 151.59098 8992 ft 340 kts 277°
2026-04-24 12:32 -33.98426 151.56285 8980 ft 334 kts 266°
2026-04-24 12:33 -33.99043 151.53602 9007 ft 336 kts 240°
2026-04-24 12:33 -34.00517 151.51420 9007 ft 338 kts 218°
2026-04-24 12:33 -34.02528 151.50060 9002 ft 338 kts 196°
2026-04-24 12:33 -34.04835 151.49672 9009 ft 336 kts 174°
2026-04-24 12:34 -34.07075 151.50354 8994 ft 332 kts 152°
2026-04-24 12:34 -34.08910 151.51997 9004 ft 328 kts 130°
2026-04-24 12:34 -34.10127 151.54297 9004 ft 325 kts 112°
2026-04-24 12:34 -34.10664 151.56926 8997 ft 322 kts 96°
2026-04-24 12:35 -34.10898 151.59613 8997 ft 322 kts 95°
2026-04-24 12:35 -34.11137 151.62296 9001 ft 322 kts 96°
2026-04-24 12:35 -34.11393 151.64978 8997 ft 322 kts 96°
2026-04-24 12:35 -34.11651 151.67656 8995 ft 318 kts 94°
2026-04-24 12:36 -34.11432 151.70288 9007 ft 320 kts 71°
2026-04-24 12:36 -34.10361 151.72652 9013 ft 324 kts 51°
2026-04-24 12:36 -34.08654 151.74416 9000 ft 325 kts 31°
2026-04-24 12:36 -34.06531 151.75346 8986 ft 328 kts 10°
2026-04-24 12:37 -34.04254 151.75274 8988 ft 331 kts 348°
2026-04-24 12:37 -34.02152 151.74163 8992 ft 334 kts 326°
2026-04-24 12:37 -34.00543 151.72149 8996 ft 336 kts 303°
2026-04-24 12:37 -33.99617 151.69572 8996 ft 337 kts 282°
2026-04-24 12:38 -33.99313 151.66780 8995 ft 337 kts 276°
2026-04-24 12:38 -33.99074 151.63958 9000 ft 339 kts 276°
2026-04-24 12:38 -33.98811 151.61118 8995 ft 341 kts 277°
2026-04-24 12:39 -33.99389 151.52906 9007 ft 337 kts 234°
2026-04-24 12:39 -34.01050 151.50932 9000 ft 338 kts 212°
2026-04-24 12:39 -34.03196 151.49832 8994 ft 337 kts 190°
2026-04-24 12:40 -34.05513 151.49764 9001 ft 334 kts 168°
2026-04-24 12:40 -34.07668 151.50749 8993 ft 330 kts 146°
2026-04-24 12:40 -34.09326 151.52618 9001 ft 327 kts 124°
2026-04-24 12:40 -34.10086 151.54179 9003 ft 325 kts 113°
2026-04-24 12:41 -34.10657 151.56793 9004 ft 322 kts 96°
2026-04-24 12:41 -34.10893 151.59480 8992 ft 322 kts 95°
2026-04-24 12:41 -34.11129 151.62164 8996 ft 322 kts 96°
2026-04-24 12:41 -34.11385 151.64854 8994 ft 322 kts 96°
2026-04-24 12:42 -34.11646 151.67552 9000 ft 319 kts 94°
2026-04-24 12:42 -34.11460 151.70192 9002 ft 320 kts 72°
2026-04-24 12:42 -34.10427 151.72586 9000 ft 324 kts 53°
2026-04-24 12:42 -34.08809 151.74466 8992 ft 325 kts 34°
2026-04-24 12:43 -34.06772 151.75537 8977 ft 326 kts 13°
2026-04-24 12:43 -34.04510 151.75585 9000 ft 328 kts 350°
2026-04-24 12:43 -34.02393 151.74566 8995 ft 331 kts 327°
2026-04-24 12:43 -34.00733 151.72642 8999 ft 334 kts 306°
2026-04-24 12:44 -33.99711 151.70134 8998 ft 336 kts 285°
2026-04-24 12:44 -33.99358 151.67336 8994 ft 337 kts 276°
2026-04-24 12:44 -33.99123 151.64509 9011 ft 339 kts 276°
2026-04-24 12:44 -33.98865 151.61674 9002 ft 341 kts 277°
2026-04-24 12:45 -33.98587 151.58830 9000 ft 341 kts 278°
2026-04-24 12:45 -33.97992 151.56119 8979 ft 337 kts 297°
2026-04-24 12:45 -33.96619 151.53838 8845 ft 337 kts 316°
2026-04-24 12:45 -33.94907 151.51971 8621 ft 336 kts 321°
2026-04-24 12:46 -33.93106 151.50192 8375 ft 335 kts 322°
2026-04-24 12:46 -33.91310 151.48454 8139 ft 327 kts 322°
2026-04-24 12:46 -33.89562 151.46767 7941 ft 312 kts 323°
2026-04-24 12:46 -33.87933 151.45193 7719 ft 289 kts 323°
2026-04-24 12:47 -33.86400 151.43709 7539 ft 282 kts 323°
2026-04-24 12:47 -33.84861 151.42222 7389 ft 284 kts 323°
2026-04-24 12:47 -33.83337 151.40750 7233 ft 284 kts 323°
2026-04-24 12:47 -33.81801 151.39267 7121 ft 282 kts 323°
2026-04-24 12:48 -33.80281 151.37795 7018 ft 279 kts 323°
2026-04-24 12:48 -33.78777 151.36338 6926 ft 277 kts 323°
2026-04-24 12:48 -33.77282 151.34890 6818 ft 275 kts 323°
2026-04-24 12:48 -33.75801 151.33453 6751 ft 271 kts 323°
2026-04-24 12:49 -33.74324 151.32021 6762 ft 275 kts 323°
2026-04-24 12:49 -33.72821 151.30564 6762 ft 279 kts 323°
2026-04-24 12:49 -33.71314 151.29104 6754 ft 279 kts 323°
2026-04-24 12:49 -33.69823 151.27657 6755 ft 278 kts 323°
2026-04-24 12:50 -33.68321 151.26198 6755 ft 277 kts 323°
2026-04-24 12:50 -33.66822 151.24741 6762 ft 276 kts 323°
2026-04-24 12:50 -33.65322 151.23283 6758 ft 276 kts 323°
2026-04-24 12:50 -33.63845 151.21846 6750 ft 277 kts 322°
2026-04-24 12:51 -33.62517 151.20156 6463 ft 286 kts 302°
2026-04-24 12:51 -33.61896 151.17913 6030 ft 280 kts 274°
2026-04-24 12:51 -33.62119 151.15649 5603 ft 269 kts 252°
2026-04-24 12:51 -33.63039 151.13762 5164 ft 259 kts 223°
2026-04-24 12:52 -33.64517 151.12631 4727 ft 248 kts 202°
2026-04-24 12:52 -33.66100 151.11891 4325 ft 240 kts 198°
2026-04-24 12:52 -33.67627 151.11237 4111 ft 224 kts 198°
2026-04-24 12:52 -33.69055 151.10630 4108 ft 211 kts 198°
2026-04-24 12:53 -33.70408 151.10059 4061 ft 202 kts 198°
2026-04-24 12:53 -33.71754 151.09884 3877 ft 191 kts 168°
2026-04-24 12:53 -33.72972 151.10449 3805 ft 188 kts 149°
2026-04-24 12:53 -33.74081 151.11246 3625 ft 185 kts 143°
2026-04-24 12:54 -33.75062 151.12135 3335 ft 171 kts 156°
2026-04-24 12:54 -33.76198 151.12376 3221 ft 164 kts 166°
2026-04-24 12:54 -33.77287 151.12819 3231 ft 168 kts 158°
2026-04-24 12:54 -33.78413 151.13276 3067 ft 169 kts 161°
2026-04-24 12:55 -33.79502 151.13666 2946 ft 156 kts 163°
2026-04-24 12:55 -33.80547 151.13955 2648 ft 154 kts 167°
2026-04-24 12:55 -33.81569 151.14183 2325 ft 149 kts 168°
2026-04-24 12:55 -33.82589 151.14404 2072 ft 146 kts 168°
2026-04-24 12:56 -33.83591 151.14677 1819 ft 149 kts 165°
2026-04-24 12:56 -33.84597 151.14966 1562 ft 144 kts 166°
2026-04-24 12:56 -33.85581 151.15242 1487 ft 148 kts 166°
2026-04-24 12:56 -33.86596 151.15505 1349 ft 149 kts 167°
2026-04-24 12:57 -33.87606 151.15765 1263 ft 140 kts 167°
2026-04-24 12:57 -33.88512 151.15980 955 ft 130 kts 168°
2026-04-24 12:57 -33.89353 151.16211 747 ft 122 kts 167°
2026-04-24 12:57 -33.90217 151.16452 668 ft 132 kts 168°
2026-04-24 12:58 -33.91103 151.16691 476 ft 128 kts 169°
2026-04-24 12:58 -33.91962 151.16912 292 ft 123 kts 170°
2026-04-24 12:58 -33.92779 151.17125 122 ft 117 kts 170°
2026-04-24 12:58 -33.93522 151.17304 32 ft 96 kts 168°
2026-04-24 12:59 -33.93862 151.17395 31 ft 15 kts 167°
2026-04-24 12:59 -33.93940 151.17348 31 ft 14 kts 247°
2026-04-24 12:59 -33.93948 151.17318 32 ft 0 kts 252°
2026-04-24 13:00 -33.93951 151.17309 32 ft 6 kts 252°
2026-04-24 13:01 -33.93962 151.17259 33 ft 6 kts 254°
2026-04-24 13:01 -33.93974 151.17210 34 ft 6 kts 254°
2026-04-24 13:01 -33.93986 151.17159 34 ft 8 kts 254°
2026-04-24 13:01 -33.94011 151.17054 34 ft 18 kts 253°
2026-04-24 13:02 -33.94039 151.16943 34 ft 10 kts 253°
2026-04-24 13:02 -33.94055 151.16865 34 ft 10 kts 265°
2026-04-24 13:02 -33.94018 151.16806 34 ft 10 kts 333°
2026-04-24 13:02 -33.93979 151.16789 34 ft 3 kts 341°
2026-04-24 13:03 -33.93924 151.16781 34 ft 8 kts 15°
2026-04-24 13:03 -33.93906 151.16808 34 ft 3 kts 62°
2026-04-24 13:03 -33.93898 151.16829 34 ft 3 kts 70°
2026-04-24 13:03 -33.93896 151.16837 34 ft 0 kts 72°
2026-04-24 13:05 -33.93893 151.16851 34 ft 1 kts 73°
2026-04-24 13:05 -33.93890 151.16862 34 ft 1 kts 73°
2026-04-24 13:05 -33.93889 151.16865 34 ft 0 kts 73°